AFR76PJ GMMX-LFPG

Flight info

Callsign AFR76PJ
Flight time 2h 34m
Altitude 38000
Route OBOGA UG850 VALBA UZ801 TOLSI UG5 KORIS DCT SVL DCT HIJ DCT PARKA DCT TLD DCT SIE DCT EDIGO DCT DGO L176 LUSEM DCT LULUT DCT POI/N0392F300 DCT PEPAX UT182 KEPER
Aircraft A20N/M-SDE2E3FGHIRWXY/LB1

Departure

Time 2026-05-04 14:40
Airport Marrakesh Menara Airport (GMMX)

Arrival

Time 2026-05-04 17:14
Airport Charles de Gaulle International Airport (LFPG)
Time Latitude Longitude Altitude Speed Heading
2026-05-04 14:15 31.60275 -8.02067 1553 ft 0 kts 182°
2026-05-04 14:17 31.60369 -8.02775 1537 ft 0 kts 185°
2026-05-04 14:30 31.60374 -8.02774 1536 ft 3 kts 186°
2026-05-04 14:30 31.60401 -8.02770 1538 ft 4 kts 191°
2026-05-04 14:30 31.60442 -8.02754 1539 ft 0 kts 214°
2026-05-04 14:35 31.60439 -8.02859 1539 ft 30 kts 306°
2026-05-04 14:35 31.60451 -8.03089 1539 ft 28 kts 275°
2026-05-04 14:35 31.60484 -8.03307 1536 ft 26 kts 276°
2026-05-04 14:35 31.60493 -8.03511 1536 ft 25 kts 271°
2026-05-04 14:36 31.60510 -8.03706 1531 ft 23 kts 279°
2026-05-04 14:36 31.60526 -8.03889 1529 ft 22 kts 272°
2026-05-04 14:36 31.60535 -8.04062 1529 ft 21 kts 284°
2026-05-04 14:36 31.60573 -8.04217 1522 ft 19 kts 278°
2026-05-04 14:37 31.60588 -8.04367 1520 ft 18 kts 275°
2026-05-04 14:37 31.60594 -8.04514 1521 ft 18 kts 271°
2026-05-04 14:37 31.60597 -8.04654 1522 ft 17 kts 272°
2026-05-04 14:37 31.60610 -8.04789 1520 ft 17 kts 285°
2026-05-04 14:38 31.60633 -8.04920 1519 ft 16 kts 274°
2026-05-04 14:38 31.60640 -8.05051 1517 ft 16 kts 272°
2026-05-04 14:38 31.60644 -8.05179 1516 ft 16 kts 271°
2026-05-04 14:38 31.60698 -8.05242 1515 ft 13 kts 15°
2026-05-04 14:39 31.60772 -8.05229 1514 ft 12 kts
2026-05-04 14:39 31.60831 -8.05155 1512 ft 26 kts 71°
2026-05-04 14:39 31.60773 -8.04676 1521 ft 98 kts 103°
2026-05-04 14:40 31.60562 -8.02125 1587 ft 213 kts 91°
2026-05-04 14:40 31.60508 -8.00342 2163 ft 224 kts 104°
2026-05-04 14:40 31.60216 -7.98522 2725 ft 231 kts 123°
2026-05-04 14:40 31.59578 -7.96803 3435 ft 231 kts 133°
2026-05-04 14:41 31.58794 -7.95082 3917 ft 250 kts 133°
2026-05-04 14:41 31.57958 -7.93187 4364 ft 273 kts 129°
2026-05-04 14:41 31.56589 -7.88669 5448 ft 322 kts 94°
2026-05-04 14:42 31.58582 -7.84172 7018 ft 310 kts 20°
2026-05-04 14:42 31.60492 -7.83377 7775 ft 280 kts 349°
2026-05-04 14:42 31.62406 -7.83332 8565 ft 272 kts 341°
2026-05-04 14:43 31.64297 -7.83455 9381 ft 273 kts 339°
2026-05-04 14:43 31.66197 -7.83618 10171 ft 276 kts 339°
2026-05-04 14:43 31.68121 -7.83791 10951 ft 279 kts 339°
2026-05-04 14:43 31.70068 -7.83966 11704 ft 282 kts 340°
2026-05-04 14:44 31.72043 -7.84143 12448 ft 286 kts 340°
2026-05-04 14:44 31.74033 -7.84320 13168 ft 289 kts 340°
2026-05-04 14:44 31.76052 -7.84498 13870 ft 292 kts 340°
2026-05-04 14:44 31.78091 -7.84677 14547 ft 296 kts 341°
2026-05-04 14:45 31.80195 -7.84553 15172 ft 321 kts
2026-05-04 14:45 31.82360 -7.83474 15809 ft 349 kts 25°
2026-05-04 14:45 31.84228 -7.81530 16081 ft 379 kts 43°
2026-05-04 14:45 31.85974 -7.79093 16290 ft 399 kts 45°
2026-05-04 14:46 31.87783 -7.76525 16494 ft 417 kts 45°
2026-05-04 14:46 31.89710 -7.73878 16695 ft 433 kts 44°
2026-05-04 14:46 31.91735 -7.71183 17029 ft 444 kts 43°
2026-05-04 14:46 31.93812 -7.68462 17588 ft 448 kts 43°
2026-05-04 14:47 31.95909 -7.65734 18181 ft 451 kts 43°
2026-05-04 14:47 31.98026 -7.62987 18753 ft 454 kts 43°
2026-05-04 14:47 32.00152 -7.60228 19357 ft 456 kts 43°
2026-05-04 14:47 32.02293 -7.57448 19904 ft 459 kts 43°
2026-05-04 14:48 32.04445 -7.54651 20453 ft 463 kts 43°
2026-05-04 14:48 32.06753 -7.52027 20979 ft 458 kts 30°
2026-05-04 14:48 32.09462 -7.50149 21473 ft 447 kts 14°
2026-05-04 14:48 32.12386 -7.49150 21964 ft 432 kts 358°
2026-05-04 14:49 32.15335 -7.49035 22451 ft 419 kts 345°
2026-05-04 14:49 32.18191 -7.49372 22927 ft 419 kts 343°
2026-05-04 14:49 32.21102 -7.49714 23408 ft 424 kts 345°
2026-05-04 14:49 32.24068 -7.49939 23877 ft 430 kts 347°
2026-05-04 14:50 32.27069 -7.50054 24317 ft 435 kts 349°
2026-05-04 14:50 32.30109 -7.50106 24791 ft 438 kts 349°
2026-05-04 14:50 32.33163 -7.50128 25222 ft 441 kts 350°
2026-05-04 14:50 32.36245 -7.50143 25635 ft 444 kts 350°
2026-05-04 14:51 32.39346 -7.50158 26040 ft 447 kts 350°
2026-05-04 14:51 32.42467 -7.50175 26447 ft 449 kts 350°
2026-05-04 14:51 32.45599 -7.50194 26825 ft 452 kts 350°
2026-05-04 14:51 32.48755 -7.50214 27189 ft 454 kts 350°
2026-05-04 14:52 32.51926 -7.50235 27530 ft 457 kts 350°
2026-05-04 14:52 32.55118 -7.50256 27871 ft 460 kts 350°
2026-05-04 14:52 32.58285 -7.50277 28196 ft 462 kts 350°
2026-05-04 14:52 32.61554 -7.50298 28505 ft 465 kts 350°
2026-05-04 14:53 32.64756 -7.50320 28814 ft 467 kts 350°
2026-05-04 14:53 32.68010 -7.50357 29113 ft 469 kts 350°
2026-05-04 14:53 32.71252 -7.50382 29409 ft 472 kts 350°
2026-05-04 14:53 32.74538 -7.50401 29705 ft 473 kts 351°
2026-05-04 14:54 32.77841 -7.50419 29978 ft 476 kts 351°
2026-05-04 14:54 32.81162 -7.50438 30233 ft 478 kts 351°
2026-05-04 14:54 32.84493 -7.50457 30508 ft 480 kts 351°
2026-05-04 14:54 32.87844 -7.50477 30778 ft 483 kts 351°
2026-05-04 14:55 32.91205 -7.50496 31077 ft 484 kts 351°
2026-05-04 14:55 32.94583 -7.50515 31375 ft 485 kts 351°
2026-05-04 14:55 32.97952 -7.50534 31730 ft 484 kts 351°
2026-05-04 14:55 33.01318 -7.50552 32129 ft 483 kts 351°
2026-05-04 14:56 33.04674 -7.50570 32477 ft 482 kts 351°
2026-05-04 14:56 33.08025 -7.50585 32793 ft 482 kts 352°
2026-05-04 14:56 33.11395 -7.50312 33119 ft 490 kts 359°
2026-05-04 14:56 33.14770 -7.49567 33438 ft 497 kts
2026-05-04 14:57 33.18068 -7.48490 33734 ft 498 kts
2026-05-04 14:57 33.21407 -7.47398 34011 ft 497 kts
2026-05-04 14:57 33.24744 -7.46315 34281 ft 497 kts
2026-05-04 14:57 33.28072 -7.45235 34545 ft 496 kts
2026-05-04 14:58 33.31398 -7.44154 34791 ft 495 kts
2026-05-04 14:58 33.34726 -7.43069 35045 ft 495 kts
2026-05-04 14:58 33.38049 -7.41983 35289 ft 494 kts
2026-05-04 14:58 33.40287 -7.41252 35434 ft 494 kts
2026-05-04 14:59 33.44675 -7.39816 35727 ft 493 kts
2026-05-04 14:59 33.47985 -7.38732 35937 ft 493 kts
2026-05-04 14:59 33.54588 -7.36566 36332 ft 492 kts
2026-05-04 15:00 33.57893 -7.35481 36509 ft 492 kts
2026-05-04 15:00 33.61198 -7.34395 36665 ft 492 kts
2026-05-04 15:00 33.64497 -7.33311 36816 ft 492 kts
2026-05-04 15:01 33.71100 -7.31136 37146 ft 492 kts
2026-05-04 15:01 33.74394 -7.30050 37298 ft 491 kts
2026-05-04 15:01 33.77691 -7.28962 37440 ft 491 kts
2026-05-04 15:01 33.80945 -7.27888 37569 ft 491 kts
2026-05-04 15:02 33.84235 -7.26801 37688 ft 491 kts
2026-05-04 15:02 33.87528 -7.25712 37811 ft 491 kts
2026-05-04 15:02 33.90826 -7.24621 37924 ft 491 kts
2026-05-04 15:02 33.94116 -7.23531 38034 ft 491 kts
2026-05-04 15:03 34.00709 -7.21345 38100 ft 491 kts
2026-05-04 15:03 34.07288 -7.19159 38104 ft 490 kts
2026-05-04 15:04 34.13861 -7.16973 38102 ft 490 kts
2026-05-04 15:04 34.20438 -7.14781 38103 ft 490 kts
2026-05-04 15:05 34.27018 -7.12585 38101 ft 491 kts
2026-05-04 15:05 34.33592 -7.10387 38104 ft 491 kts
2026-05-04 15:06 34.40106 -7.08206 38104 ft 491 kts
2026-05-04 15:07 34.49972 -7.04895 38102 ft 491 kts
2026-05-04 15:07 34.55444 -7.03056 38103 ft 491 kts
2026-05-04 15:08 34.61938 -7.00309 38101 ft 501 kts 18°
2026-05-04 15:08 34.69209 -6.95877 38102 ft 503 kts 20°
2026-05-04 15:09 34.74446 -6.92681 38102 ft 503 kts 20°
2026-05-04 15:09 34.80700 -6.88849 38104 ft 503 kts 20°
2026-05-04 15:10 34.90040 -6.83100 38103 ft 504 kts 20°
2026-05-04 15:11 34.99417 -6.77312 38105 ft 504 kts 20°
2026-05-04 15:11 35.05670 -6.73444 38103 ft 504 kts 20°
2026-05-04 15:12 35.11921 -6.69571 38104 ft 504 kts 20°
2026-05-04 15:12 35.18168 -6.65693 38105 ft 504 kts 20°
2026-05-04 15:13 35.24417 -6.61807 38105 ft 504 kts 20°
2026-05-04 15:13 35.30670 -6.57913 38104 ft 504 kts 20°
2026-05-04 15:14 35.36916 -6.54015 38104 ft 504 kts 20°
2026-05-04 15:14 35.43117 -6.50140 38106 ft 504 kts 20°
2026-05-04 15:15 35.49345 -6.46167 38102 ft 505 kts 21°
2026-05-04 15:15 35.55537 -6.42101 38102 ft 505 kts 21°
2026-05-04 15:16 35.64835 -6.36011 38104 ft 505 kts 21°
2026-05-04 15:17 35.74124 -6.29926 38102 ft 505 kts 21°
2026-05-04 15:17 35.83529 -6.24226 38100 ft 496 kts 12°
2026-05-04 15:18 35.90092 -6.21962 38100 ft 487 kts
2026-05-04 15:19 35.99939 -6.19054 38098 ft 488 kts
2026-05-04 15:19 36.09840 -6.16129 38097 ft 488 kts
2026-05-04 15:20 36.16437 -6.14182 38101 ft 488 kts
2026-05-04 15:20 36.23042 -6.12229 38100 ft 488 kts
2026-05-04 15:21 36.29645 -6.10273 38102 ft 488 kts
2026-05-04 15:22 36.39565 -6.07329 38108 ft 489 kts
2026-05-04 15:22 36.49451 -6.04386 38105 ft 489 kts
2026-05-04 15:23 36.56118 -6.02398 38109 ft 489 kts
2026-05-04 15:23 36.62700 -6.00431 38109 ft 489 kts
2026-05-04 15:24 36.75944 -5.96463 38109 ft 490 kts
2026-05-04 15:25 36.82567 -5.94474 38106 ft 490 kts
2026-05-04 15:26 36.92494 -5.91485 38106 ft 489 kts
2026-05-04 15:26 37.02417 -5.88489 38108 ft 489 kts
2026-05-04 15:27 37.12292 -5.85500 38104 ft 489 kts
2026-05-04 15:28 37.22202 -5.82492 38105 ft 488 kts
2026-05-04 15:29 37.32109 -5.79477 38099 ft 488 kts
2026-05-04 15:30 37.45206 -5.74720 38097 ft 499 kts 17°
2026-05-04 15:30 37.54651 -5.69024 38093 ft 501 kts 18°
2026-05-04 15:31 37.64090 -5.63324 38098 ft 502 kts 18°
2026-05-04 15:32 37.79785 -5.53773 38077 ft 502 kts 19°
2026-05-04 15:34 37.95513 -5.44159 38087 ft 503 kts 19°
2026-05-04 15:34 38.04972 -5.38354 38099 ft 504 kts 19°
2026-05-04 15:35 38.14439 -5.32527 38099 ft 505 kts 19°
2026-05-04 15:36 38.23897 -5.26688 38096 ft 506 kts 19°
2026-05-04 15:36 38.30225 -5.22772 38104 ft 506 kts 19°
2026-05-04 15:37 38.36571 -5.18837 38101 ft 507 kts 19°
2026-05-04 15:37 38.42918 -5.14895 38107 ft 508 kts 19°
2026-05-04 15:38 38.49388 -5.11573 38110 ft 494 kts
2026-05-04 15:38 38.55931 -5.10568 38108 ft 474 kts 349°
2026-05-04 15:39 38.62452 -5.11169 38102 ft 469 kts 346°
2026-05-04 15:40 38.72169 -5.12142 38102 ft 468 kts 346°
2026-05-04 15:40 38.78659 -5.12804 38101 ft 468 kts 346°
2026-05-04 15:41 38.85109 -5.13462 38103 ft 468 kts 346°
2026-05-04 15:41 38.91589 -5.14125 38103 ft 468 kts 346°
2026-05-04 15:42 38.98175 -5.14028 38108 ft 486 kts
2026-05-04 15:42 39.01484 -5.12937 38102 ft 498 kts 12°
2026-05-04 15:42 39.04679 -5.11094 38104 ft 509 kts 23°
2026-05-04 15:43 39.10690 -5.06166 38101 ft 513 kts 26°
2026-05-04 15:43 39.16697 -5.01195 38104 ft 514 kts 26°
2026-05-04 15:44 39.22713 -4.96208 38112 ft 514 kts 26°
2026-05-04 15:44 39.28723 -4.91211 38102 ft 514 kts 26°
2026-05-04 15:45 39.34720 -4.86212 38100 ft 512 kts 26°
2026-05-04 15:45 39.40703 -4.81219 38103 ft 513 kts 26°
2026-05-04 15:46 39.46691 -4.76211 38105 ft 514 kts 27°
2026-05-04 15:46 39.52698 -4.71174 38099 ft 514 kts 27°
2026-05-04 15:47 39.58679 -4.66148 38107 ft 513 kts 27°
2026-05-04 15:47 39.64521 -4.61232 38103 ft 516 kts 27°
2026-05-04 15:48 39.70538 -4.56155 38100 ft 515 kts 27°
2026-05-04 15:48 39.79523 -4.48555 38104 ft 514 kts 27°
2026-05-04 15:49 39.85510 -4.43478 38111 ft 514 kts 27°
2026-05-04 15:49 39.91451 -4.38429 38107 ft 513 kts 27°
2026-05-04 15:50 39.97488 -4.33486 38102 ft 508 kts 21°
2026-05-04 15:50 40.03844 -4.29567 38102 ft 505 kts 18°
2026-05-04 15:51 40.10115 -4.25734 38100 ft 505 kts 18°
2026-05-04 15:51 40.16476 -4.21840 38097 ft 505 kts 18°
2026-05-04 15:52 40.22830 -4.17948 38098 ft 505 kts 18°
2026-05-04 15:52 40.29194 -4.14043 38098 ft 505 kts 18°
2026-05-04 15:53 40.35556 -4.10132 38098 ft 505 kts 18°
2026-05-04 15:53 40.41808 -4.06279 38100 ft 505 kts 18°
2026-05-04 15:54 40.48171 -4.02351 38096 ft 505 kts 18°
2026-05-04 15:54 40.54529 -3.98417 38092 ft 505 kts 18°
2026-05-04 15:55 40.60889 -3.94474 38086 ft 505 kts 18°
2026-05-04 15:55 40.67173 -3.90570 38100 ft 507 kts 18°
2026-05-04 15:56 40.73615 -3.86560 38101 ft 508 kts 18°
2026-05-04 15:56 40.80015 -3.82566 38103 ft 511 kts 18°
2026-05-04 15:57 40.86456 -3.78539 38098 ft 513 kts 18°
2026-05-04 15:57 40.92880 -3.74510 38104 ft 509 kts 18°
2026-05-04 15:58 40.99265 -3.70499 38103 ft 508 kts 18°
2026-05-04 15:58 41.05669 -3.66471 38102 ft 511 kts 18°
2026-05-04 15:59 41.12098 -3.62417 38106 ft 512 kts 18°
2026-05-04 15:59 41.18550 -3.58465 38112 ft 508 kts 15°
2026-05-04 16:00 41.25064 -3.54996 38102 ft 505 kts 14°
2026-05-04 16:00 41.31583 -3.51509 38102 ft 506 kts 15°
2026-05-04 16:01 41.38092 -3.47960 38102 ft 505 kts 15°
2026-05-04 16:01 41.44552 -3.44414 38101 ft 505 kts 15°
2026-05-04 16:02 41.51049 -3.40842 38106 ft 506 kts 15°
2026-05-04 16:03 41.60811 -3.35456 38103 ft 505 kts 15°
2026-05-04 16:03 41.67293 -3.31870 38104 ft 505 kts 15°
2026-05-04 16:04 41.73792 -3.28267 38100 ft 505 kts 15°
2026-05-04 16:04 41.83530 -3.22855 38102 ft 506 kts 15°
2026-05-04 16:05 41.88938 -3.19842 38106 ft 506 kts 15°
2026-05-04 16:06 41.98690 -3.14392 38098 ft 506 kts 15°
2026-05-04 16:07 42.11696 -3.07098 38102 ft 508 kts 15°
2026-05-04 16:08 42.24688 -2.99779 38101 ft 507 kts 15°
2026-05-04 16:09 42.40923 -2.90526 38101 ft 507 kts 19°
2026-05-04 16:09 42.47034 -2.85617 38105 ft 516 kts 31°
2026-05-04 16:10 42.52563 -2.79313 38104 ft 520 kts 37°
2026-05-04 16:11 42.63418 -2.66280 38102 ft 524 kts 37°
2026-05-04 16:12 42.79689 -2.46522 38101 ft 524 kts 37°
2026-05-04 16:13 42.90493 -2.33317 38102 ft 521 kts 37°
2026-05-04 16:14 43.01275 -2.20074 38104 ft 520 kts 37°
2026-05-04 16:16 43.14623 -2.03568 38100 ft 519 kts 37°
2026-05-04 16:17 43.27973 -1.86977 38099 ft 519 kts 37°
2026-05-04 16:18 43.36731 -1.78676 38105 ft 506 kts 23°
2026-05-04 16:18 43.39725 -1.76074 38105 ft 510 kts 27°
2026-05-04 16:19 43.54532 -1.62663 38101 ft 510 kts 27°
2026-05-04 16:20 43.69347 -1.49202 38102 ft 510 kts 27°
2026-05-04 16:22 43.84099 -1.35714 38101 ft 510 kts 27°
2026-05-04 16:23 44.01847 -1.19379 38103 ft 510 kts 27°
2026-05-04 16:25 44.19582 -1.02938 38104 ft 511 kts 27°
2026-05-04 16:26 44.40267 -0.84134 38100 ft 502 kts 18°
2026-05-04 16:28 44.56397 -0.75690 38101 ft 496 kts 12°
2026-05-04 16:29 44.79110 -0.64198 38103 ft 496 kts 12°
2026-05-04 16:31 44.95342 -0.55933 38106 ft 496 kts 12°
2026-05-04 16:32 45.14762 -0.45978 38107 ft 497 kts 12°
2026-05-04 16:33 45.27701 -0.39306 38107 ft 497 kts 12°
2026-05-04 16:34 45.37449 -0.34257 38108 ft 497 kts 12°
2026-05-04 16:35 45.56906 -0.24125 38101 ft 496 kts 12°
2026-05-04 16:36 45.66632 -0.19032 38104 ft 496 kts 12°
2026-05-04 16:37 45.76315 -0.13943 38102 ft 496 kts 12°
2026-05-04 16:38 45.89275 -0.07101 38099 ft 496 kts 12°
2026-05-04 16:39 46.05415 0.01466 38100 ft 496 kts 12°
2026-05-04 16:40 46.18370 0.08382 38100 ft 496 kts 13°
2026-05-04 16:41 46.34551 0.17070 38099 ft 497 kts 13°
2026-05-04 16:43 46.50754 0.25823 38105 ft 497 kts 13°
2026-05-04 16:43 46.60542 0.30566 38102 ft 487 kts
2026-05-04 16:45 46.80402 0.36657 38110 ft 487 kts
2026-05-04 16:46 46.96898 0.41754 38108 ft 488 kts
2026-05-04 16:47 47.10144 0.44288 38106 ft 469 kts 348°
2026-05-04 16:48 47.19648 0.42409 37991 ft 460 kts 341°
2026-05-04 16:48 47.22802 0.41659 37746 ft 459 kts 341°
2026-05-04 16:49 47.29094 0.40150 37245 ft 457 kts 341°
2026-05-04 16:49 47.35366 0.38618 36747 ft 458 kts 341°
2026-05-04 16:50 47.41653 0.37074 36250 ft 458 kts 341°
2026-05-04 16:50 47.47934 0.35529 35750 ft 458 kts 341°
2026-05-04 16:51 47.54188 0.33980 35259 ft 459 kts 341°
2026-05-04 16:51 47.57384 0.33186 35005 ft 459 kts 341°
2026-05-04 16:51 47.63679 0.31615 33734 ft 466 kts 341°
2026-05-04 16:52 47.70122 0.30005 32000 ft 472 kts 341°
2026-05-04 16:52 47.73374 0.29196 31167 ft 473 kts 341°
2026-05-04 16:53 47.80060 0.28886 29616 ft 496 kts
2026-05-04 16:53 47.89371 0.35445 27822 ft 512 kts 33°
2026-05-04 16:54 47.92204 0.38846 27492 ft 501 kts 33°
2026-05-04 16:55 48.03031 0.50883 25522 ft 476 kts 28°
2026-05-04 16:55 48.08407 0.56541 24421 ft 469 kts 28°
2026-05-04 16:56 48.13693 0.62117 23344 ft 462 kts 28°
2026-05-04 16:56 48.21446 0.70331 21717 ft 452 kts 28°
2026-05-04 16:57 48.24008 0.73052 21185 ft 449 kts 28°
2026-05-04 16:57 48.29067 0.78437 20112 ft 443 kts 28°
2026-05-04 16:58 48.35820 0.87771 18539 ft 449 kts 57°
2026-05-04 16:58 48.37276 0.91915 18001 ft 448 kts 60°
2026-05-04 16:59 48.40131 1.00179 16990 ft 442 kts 60°
2026-05-04 17:00 48.45723 1.16393 15140 ft 427 kts 60°
2026-05-04 17:00 48.49204 1.26564 14720 ft 395 kts 60°
2026-05-04 17:01 48.51693 1.33849 13587 ft 388 kts 60°
2026-05-04 17:01 48.54113 1.40898 12429 ft 382 kts 60°
2026-05-04 17:02 48.56553 1.47971 11263 ft 376 kts 56°
2026-05-04 17:02 48.60132 1.52743 10486 ft 338 kts 15°
2026-05-04 17:03 48.62317 1.54309 10247 ft 340 kts 14°
2026-05-04 17:03 48.64448 1.55813 10022 ft 337 kts 14°
2026-05-04 17:03 48.68684 1.58869 9550 ft 336 kts 14°
2026-05-04 17:04 48.72882 1.61965 9073 ft 335 kts 15°
2026-05-04 17:04 48.77005 1.65031 8381 ft 329 kts 15°
2026-05-04 17:05 48.81115 1.68094 7679 ft 329 kts 14°
2026-05-04 17:05 48.85194 1.71163 6976 ft 330 kts 21°
2026-05-04 17:06 48.88114 1.76541 6306 ft 350 kts 60°
2026-05-04 17:06 48.89204 1.79838 5950 ft 348 kts 60°
2026-05-04 17:07 48.91372 1.86392 5257 ft 346 kts 60°
2026-05-04 17:07 48.92101 1.88595 5018 ft 346 kts 60°
2026-05-04 17:07 48.93511 1.92902 4554 ft 342 kts 60°
2026-05-04 17:07 48.94474 1.96021 4218 ft 342 kts 68°
2026-05-04 17:08 48.95147 1.99318 4031 ft 338 kts 73°
2026-05-04 17:08 48.96388 2.06148 4002 ft 344 kts 79°
2026-05-04 17:08 48.96758 2.09719 4001 ft 335 kts 86°
2026-05-04 17:09 48.96971 2.13142 3993 ft 313 kts 89°
2026-05-04 17:09 48.97128 2.16174 4002 ft 305 kts 89°
2026-05-04 17:09 48.97204 2.17649 3993 ft 310 kts 89°
2026-05-04 17:10 48.97524 2.23559 3984 ft 285 kts 88°
2026-05-04 17:10 48.97955 2.31638 3543 ft 250 kts 89°
2026-05-04 17:11 48.98095 2.34224 3205 ft 242 kts 90°
2026-05-04 17:11 48.98226 2.36664 2897 ft 236 kts 91°
2026-05-04 17:11 48.98401 2.39883 2511 ft 225 kts 91°
2026-05-04 17:12 48.98438 2.40607 2415 ft 223 kts 92°
2026-05-04 17:12 48.98655 2.44689 1884 ft 214 kts 91°
2026-05-04 17:13 48.99017 2.51453 1037 ft 208 kts 90°
2026-05-04 17:14 48.99345 2.57698 362 ft 176 kts 89°
2026-05-04 17:14 48.99422 2.59293 350 ft 102 kts 83°
2026-05-04 17:14 48.99698 2.59972 353 ft 20 kts
2026-05-04 17:15 48.99798 2.59966 361 ft 11 kts 354°
2026-05-04 17:15 48.99902 2.60008 362 ft 0 kts 33°
2026-05-04 17:16 49.00072 2.60061 358 ft 9 kts 313°
2026-05-04 17:16 49.00080 2.60036 358 ft 0 kts 274°
2026-05-04 17:17 49.00083 2.59935 354 ft 27 kts 271°
2026-05-04 17:17 49.00595 2.59571 353 ft 27 kts 358°
2026-05-04 17:18 49.00771 2.59549 358 ft 26 kts 353°
2026-05-04 17:18 49.00887 2.59344 354 ft 21 kts 263°
2026-05-04 17:19 49.00861 2.58975 354 ft 4 kts 266°
2026-05-04 17:19 49.00853 2.58788 359 ft 18 kts 265°
2026-05-04 17:20 49.00828 2.58435 354 ft 17 kts 263°
2026-05-04 17:20 49.00799 2.58222 355 ft 7 kts 245°
2026-05-04 17:21 49.00713 2.58135 355 ft 0 kts 196°
2026-05-04 17:21 49.00688 2.58041 355 ft 0 kts 255°
2026-05-04 17:22 49.00686 2.58030 353 ft 0 kts 257°